When you browse on this site, cookies collect data to enhance your experience and personalize the content and advertising you see.
Visit our Privacy Policy to learn more. By continuing to use the site, you agree to this use of cookies and data.
  • In Belgium
  • List of Countries
  • For 7 days
  • Water Temperature
  • Weather Map
  • Weather Widgets
  • user-avatar
    Login

    Hourly Weather Leugino

    Today, 22 September, Sunday

    Time Temperature Precipitation Wind Pressure Humidity
    00:00 +4°C° 0.5 mm 2 mps 735 mmHg 96%
    01:00 +4°C° 0.5 mm 2 mps 735 mmHg 96%
    02:00 +3°C° 0.5 mm 3 mps 735 mmHg 96%
    03:00 +3°C° 0.3 mm 3 mps 735 mmHg 96%
    04:00 +2°C° 0.3 mm 3 mps 734 mmHg 95%
    05:00 +1°C° 0.3 mm 3 mps 734 mmHg 94%
    06:00 0°C° 0.1 mm 4 mps 735 mmHg 94%
    07:00 +1°C° 0.1 mm 4 mps 735 mmHg 93%
    08:00 +1°C° 0.1 mm 5 mps 735 mmHg 93%
    09:00 +1°C° 0.2 mm 5 mps 736 mmHg 91%
    10:00 +2°C° 0.2 mm 5 mps 736 mmHg 88%
    11:00 +2°C° 0.2 mm 5 mps 737 mmHg 86%
    12:00 +2°C° 0.3 mm 5 mps 737 mmHg 85%
    13:00 +2°C° 0.3 mm 5 mps 738 mmHg 84%
    14:00 +3°C° 0.3 mm 5 mps 738 mmHg 83%
    15:00 +2°C° 0.1 mm 5 mps 739 mmHg 84%
    16:00 +2°C° 0.1 mm 5 mps 739 mmHg 84%
    17:00 +3°C° 0.1 mm 4 mps 740 mmHg 85%
    18:00 +1°C° 0 mm 4 mps 740 mmHg 86%
    19:00 +1°C° 0 mm 4 mps 741 mmHg 87%
    20:00 +1°C° 0 mm 4 mps 741 mmHg 89%
    21:00 0°C° 0 mm 4 mps 742 mmHg 89%
    22:00 0°C° 0 mm 4 mps 742 mmHg 89%
    23:00 0°C° 0 mm 4 mps 742 mmHg 89%

    Tomorrow, 23 September, Monday

    Time Temperature Precipitation Wind Pressure Humidity
    00:00 -1°C° 0 mm 4 mps 743 mmHg 90%
    01:00 -1°C° 0 mm 4 mps 743 mmHg 90%
    02:00 -1°C° 0 mm 4 mps 744 mmHg 91%
    03:00 -1°C° 0 mm 4 mps 744 mmHg 91%
    04:00 -1°C° 0 mm 4 mps 744 mmHg 90%
    05:00 -1°C° 0 mm 4 mps 744 mmHg 89%
    06:00 -1°C° 0 mm 4 mps 744 mmHg 84%
    07:00 0°C° 0 mm 5 mps 744 mmHg 79%
    08:00 +1°C° 0 mm 5 mps 744 mmHg 74%
    09:00 +2°C° 0 mm 5 mps 745 mmHg 71%
    10:00 +3°C° 0 mm 5 mps 745 mmHg 68%
    11:00 +3°C° 0 mm 5 mps 745 mmHg 65%
    12:00 +5°C° 0.1 mm 5 mps 745 mmHg 64%
    13:00 +5°C° 0.1 mm 5 mps 745 mmHg 63%
    14:00 +5°C° 0.1 mm 5 mps 745 mmHg 62%
    15:00 +5°C° 0.1 mm 5 mps 745 mmHg 68%
    16:00 +4°C° 0.1 mm 4 mps 745 mmHg 75%
    17:00 +3°C° 0.1 mm 4 mps 745 mmHg 81%
    18:00 +2°C° 0.1 mm 3 mps 745 mmHg 84%
    19:00 +2°C° 0.1 mm 3 mps 745 mmHg 88%
    20:00 +1°C° 0.1 mm 3 mps 745 mmHg 91%
    21:00 +1°C° 0 mm 2 mps 746 mmHg 93%
    22:00 +1°C° 0 mm 2 mps 746 mmHg 95%
    23:00 -1°C° 0 mm 2 mps 746 mmHg 97%

    Day after tomorrow, 24 September, Tuesday

    Time Temperature Precipitation Wind Pressure Humidity
    00:00 -1°C° 0 mm 2 mps 746 mmHg 97%
    01:00 -2°C° 0 mm 2 mps 746 mmHg 97%
    02:00 -2°C° 0 mm 2 mps 746 mmHg 97%
    03:00 -2°C° 0 mm 2 mps 746 mmHg 96%
    04:00 -2°C° 0 mm 2 mps 746 mmHg 96%
    05:00 -3°C° 0 mm 2 mps 746 mmHg 96%
    06:00 -1°C° 0 mm 2 mps 746 mmHg 90%
    07:00 +1°C° 0 mm 2 mps 746 mmHg 85%
    08:00 +1°C° 0 mm 3 mps 746 mmHg 79%
    09:00 +2°C° 0 mm 3 mps 746 mmHg 75%
    10:00 +2°C° 0 mm 3 mps 747 mmHg 71%
    11:00 +3°C° 0 mm 3 mps 747 mmHg 67%
    12:00 +3°C° 0 mm 3 mps 747 mmHg 67%
    13:00 +4°C° 0 mm 3 mps 746 mmHg 67%
    14:00 +4°C° 0 mm 3 mps 746 mmHg 67%
    15:00 +3°C° 0 mm 3 mps 746 mmHg 71%
    16:00 +3°C° 0 mm 3 mps 746 mmHg 76%
    17:00 +4°C° 0 mm 2 mps 746 mmHg 81%
    18:00 +3°C° 0 mm 2 mps 746 mmHg 83%
    19:00 +2°C° 0 mm 2 mps 746 mmHg 86%
    20:00 +2°C° 0 mm 2 mps 746 mmHg 89%
    21:00 +1°C° 0 mm 2 mps 746 mmHg 89%
    22:00 +1°C° 0 mm 2 mps 746 mmHg 89%
    23:00 +2°C° 0 mm 1 mps 746 mmHg 89%

    25 September, Wednesday

    Time Temperature Precipitation Wind Pressure Humidity
    00:00 +1°C° 0 mm 1 mps 746 mmHg 90%
    01:00 -1°C° 0 mm 2 mps 746 mmHg 91%
    02:00 -1°C° 0 mm 2 mps 746 mmHg 93%
    03:00 -2°C° 0 mm 2 mps 746 mmHg 94%
    04:00 -2°C° 0 mm 2 mps 746 mmHg 95%
    05:00 -2°C° 0 mm 2 mps 746 mmHg 96%
    06:00 +1°C° 0 mm 1 mps 746 mmHg 92%
    07:00 +3°C° 0 mm 1 mps 746 mmHg 88%
    08:00 +4°C° 0 mm 1 mps 746 mmHg 84%
    09:00 +5°C° 0 mm 1 mps 746 mmHg 78%
    10:00 +7°C° 0 mm 1 mps 747 mmHg 72%
    11:00 +8°C° 0 mm 1 mps 747 mmHg 67%
    12:00 +8°C° 0 mm 1 mps 747 mmHg 66%
    13:00 +8°C° 0 mm 1 mps 747 mmHg 66%
    14:00 +9°C° 0 mm 1 mps 746 mmHg 66%
    15:00 +8°C° 0 mm 1 mps 746 mmHg 70%
    16:00 +7°C° 0 mm 1 mps 746 mmHg 74%
    17:00 +5°C° 0 mm 0 mps 746 mmHg 79%
    18:00 +4°C° 0 mm 0 mps 746 mmHg 82%
    19:00 +4°C° 0 mm 1 mps 746 mmHg 86%
    20:00 +3°C° 0 mm 1 mps 746 mmHg 89%
    21:00 +3°C° 0 mm 1 mps 746 mmHg 90%
    22:00 +3°C° 0 mm 1 mps 747 mmHg 92%
    23:00 +3°C° 0 mm 1 mps 747 mmHg 93%

    26 September, Thursday

    Time Temperature Precipitation Wind Pressure Humidity
    00:00 +3°C° 0 mm 1 mps 746 mmHg 93%
    01:00 +3°C° 0 mm 1 mps 746 mmHg 93%
    02:00 +3°C° 0 mm 1 mps 746 mmHg 94%
    03:00 +3°C° 0.1 mm 1 mps 746 mmHg 95%
    04:00 +2°C° 0.1 mm 2 mps 745 mmHg 95%
    05:00 +2°C° 0.1 mm 2 mps 745 mmHg 96%
    06:00 +3°C° 0.3 mm 2 mps 745 mmHg 96%
    07:00 +2°C° 0.3 mm 3 mps 745 mmHg 96%
    08:00 +2°C° 0.3 mm 3 mps 744 mmHg 96%
    09:00 +3°C° 0.1 mm 3 mps 744 mmHg 95%
    10:00 +3°C° 0.1 mm 3 mps 744 mmHg 95%
    11:00 +3°C° 0.1 mm 3 mps 744 mmHg 95%
    12:00 +3°C° 0.1 mm 3 mps 744 mmHg 94%
    13:00 +3°C° 0.1 mm 3 mps 744 mmHg 94%
    14:00 +3°C° 0.1 mm 3 mps 744 mmHg 94%
    15:00 +3°C° 0 mm 3 mps 744 mmHg 94%
    16:00 +4°C° 0 mm 2 mps 744 mmHg 94%
    17:00 +4°C° 0 mm 2 mps 743 mmHg 93%
    18:00 +3°C° 0 mm 2 mps 744 mmHg 94%
    19:00 +3°C° 0 mm 2 mps 744 mmHg 95%
    20:00 +3°C° 0 mm 2 mps 744 mmHg 96%
    21:00 +3°C° 0 mm 2 mps 744 mmHg 96%
    22:00 +2°C° 0 mm 2 mps 744 mmHg 96%
    23:00 +2°C° 0 mm 2 mps 744 mmHg 97%

    27 September, Friday

    Time Temperature Precipitation Wind Pressure Humidity
    00:00 +2°C° 0 mm 2 mps 744 mmHg 96%
    01:00 +2°C° 0 mm 2 mps 744 mmHg 96%
    02:00 +2°C° 0 mm 2 mps 744 mmHg 96%
    03:00 +1°C° 0 mm 2 mps 744 mmHg 96%
    04:00 +1°C° 0 mm 2 mps 744 mmHg 96%
    05:00 -1°C° 0 mm 2 mps 744 mmHg 96%
    06:00 +1°C° 0 mm 2 mps 744 mmHg 93%
    07:00 +2°C° 0 mm 2 mps 745 mmHg 91%
    08:00 +3°C° 0 mm 2 mps 745 mmHg 88%
    09:00 +4°C° 0 mm 2 mps 745 mmHg 83%
    10:00 +4°C° 0 mm 3 mps 745 mmHg 77%
    11:00 +5°C° 0 mm 3 mps 745 mmHg 71%
    12:00 +7°C° 0 mm 2 mps 745 mmHg 68%
    13:00 +7°C° 0 mm 2 mps 745 mmHg 66%
    14:00 +7°C° 0 mm 2 mps 745 mmHg 64%
    15:00 +6°C° 0 mm 2 mps 745 mmHg 67%
    16:00 +7°C° 0 mm 1 mps 745 mmHg 70%
    17:00 +6°C° 0 mm 1 mps 745 mmHg 73%
    18:00 +5°C° 0 mm 1 mps 745 mmHg 77%
    19:00 +3°C° 0 mm 0 mps 746 mmHg 82%
    20:00 +2°C° 0 mm 0 mps 746 mmHg 86%
    21:00 +2°C° 0 mm 0 mps 746 mmHg 87%
    22:00 +1°C° 0 mm 0 mps 746 mmHg 88%
    23:00 +2°C° 0 mm 1 mps 747 mmHg 89%
    Show more